Погода в Вильявисьосе

Испания     43°28′52″N   5°26′04″W
темп.,
°C
ветер,
м/с
пор.,
м/с
влажн.,
%
обл.,
%
осадки,
мм/ч
давл.,
гПа
погр.,
м
27 ноября, сб
сб2701:00+9зсз6138983 3.3 10091208
04:00+9зсз7148389 2.3 10071276
07:00+7сз101687100 8.2 10081674
10:00+8ссз91472100 2.8 10111493
13:00+8ссз71179100 6.6 10121200
16:00+8ссз81275100 3.2 10121255
19:00+7сз7127489 7.9 10141130
22:00+7ссз7117497 3.4 10161090
28 ноября, вс
вс2801:00+7ссз5978100 6.1 1017894
04:00+7зсз5980100 2.1 1018809
07:00+7зсз51082100 3.7 10181075
10:00+7зсз51093100 3.7 10191193
13:00+5юз3596100 11.0 1018329
16:00+7зюз3795100 7.3 1016449
19:00+9з61394100 10.0 10151005
22:00+11зсз81393100 2.3 10171122
29 ноября, пн
пн2901:00+10зсз71289100 3.6 10181084
04:00+10зсз61290100 0.8 10191049
07:00+10зсз61193100 2.8 10191003
10:00+10з61190100 2.9 1021972
13:00+11з598658 3.8 10211018
16:00+11з498598 0.8 1021768
19:00+9зюз2590100 1.3 1023216
22:00+8ююз2392100 0.3 102481
30 ноября, вт
вт3001:00+8ююз229093 0.3 102454
04:00+7ююз23908 0.0 102555
07:00+6ююз23895 0.0 102657
10:00+7ююз23865 0.0 102775
13:00+12ссв01684 0.0 1026404
16:00+12ссв11700 0.0 1025188
19:00+7ю22905 0.0 102658
22:00+6ююз34825 0.0 102674
1 декабря, ср
ср101:00+6ююз347944 0.0 102475
04:00+7ююз3573100 0.0 102386
07:00+8ююз377298 0.0 1021139
10:00+10ююз397291 0.0 1019189
13:00+12зсз51280100 0.6 1018853
16:00+10зсз51192100 2.8 10181072
19:00+9з61286100 4.1 10181170
22:00+9з41089100 1.3 1017927